Showing default

BUZZZER-1, 62609

Orbit data source: Space-Track

BUZZZER-1, 62609 is a payload satellite owned by Unseen Labs (FR) in SSO that was launched on Tue, 14 Jan 2025 UTC via an FALCON 9 launch vehicle from the Air Force Western Test Range (AFWTR). Payload-class satellites include a variety of spacecraft equipped with specific instruments for various scientific and technological missions. These include communications satellites like Starlink; space stations such as the ISS; scientific satellites like the Hubble; Earth observation satellites from companies like Planet Labs, Umbra, and HawkEye 360; GPS; miniature CubeSats for education and research; and military/defense satellites.

Loading next visibility...
Identifier
62609, 2025-009A
Orbit
SSO
Country
Flag of FRFR
Related business
Manufacturer
Unseen Labs
Mission
Operational Commercial Sigint
Bus & Motor
CUBESAT 6U, Unknown motor
Mass
~10 kg wet, ~10 kg dry
Launch date (UTC)
2025-01-14 (1 year ago)
Launch vehicle
FALCON 9
Launch site
Air Force Western Test Range (AFWTR)
Object type
Payload
Rocket body
Debris
Shape & HBR
Box + 2 Pan, 0.3 m
Radar Cross Section
0.080 m², Medium (>0.1 m² and < 1m²)

Expand to show TLE details & history
Last TLE update: 10 hours ago

TLE from 10 hours ago
0 BUZZZER-1
1 62609U 25009A   26127.47186970  .00002671  00000-0  12254-3 0  9992
2 62609  97.3926 206.4456 0009267 114.6740 245.5462 15.21255185 72502
Epoch: 2026-05-07T11:19Z
TLE epoch observation values (Epoch: 2026-05-07T11:19:29.542Z)
Latitude
0.00003°
Longitude
171.25498°
Altitude
507.791 km
Speed
7.609 km/s
True Right ascension
13h 45m 46s
True Declination
0° 00' 00"
Sunlit
Object was in full shadow at epoch
Visualization orbit readout
Latitude
Unknown
Longitude
Unknown
Altitude
Unknown
Speed
Unknown
Apparent Right ascension
Unknown
Apparent Declination
Unknown
Sunlit
N/A
Visualization observer readout
Local Sidereal Time
05:16:02
Azimuth
Unknown
Elevation
Unknown
Doppler factor
Unknown
Orbital elements
Apogee altitude
505.39 km
Perigee altitude
492.644 km
Semi-major axis
6,877.154 km
Eccentricity
0.00093
Inclination
97.3926°
RAAN
206.4456°
Arg. of periapsis
114.674°
True anomaly
245.44958°
Mean anomaly
245.5462°
Eccentric anomaly
245.49789°
Mean motion
3.80566 °/min
Orbital period
94.6 mins
BSTAR
0.00012254
Loading maneuver chart data...
Computing Atmospheric mass density...
Loading historical data...
Loading historical data...
Loading historical data...
Loading historical data...
Loading historical data...
Loading historical data...
Loading historical data...

Documentation

Showing up to 5 results
|